Weather reports worldwide

Advertisment
As, Norway (1463): temperature & dewpoint: 19.10.2020 02:00:00 - 25.10.2020 02:00:00 (CET)As, Norway (1463): precipitation: 19.10.2020 02:00:00 - 25.10.2020 02:00:00 (CET)
Date & Time tt [°C] td [°C] rr [mm]
25.10.2020 02:00:00 9,6 - 0,9
25.10.2020 01:00:00 - - -
25.10.2020 00:00:00 8,6 8,6 0,0
24.10.2020 23:00:00 8,2 8,2 0,0
24.10.2020 22:00:00 7,9 7,9 0,0
24.10.2020 21:00:00 7,1 7,1 0,0
24.10.2020 20:00:00 6,5 6,5 0,0
24.10.2020 19:00:00 6,1 6,0 0,0
24.10.2020 18:00:00 6,0 5,9 0,0
24.10.2020 17:00:00 5,9 5,8 0,0
24.10.2020 16:00:00 6,0 6,0 0,0
24.10.2020 15:00:00 6,0 5,9 0,0
24.10.2020 14:00:00 5,9 5,3 0,0
24.10.2020 13:00:00 - - -
24.10.2020 12:00:00 5,1 5,1 0,0
24.10.2020 11:00:00 5,0 5,0 0,0
24.10.2020 10:00:00 4,3 4,2 0,0
24.10.2020 09:00:00 3,7 3,6 0,0
24.10.2020 08:00:00 3,0 2,9 0,0
24.10.2020 07:00:00 3,5 3,5 0,0
24.10.2020 06:00:00 3,6 3,6 0,1
24.10.2020 05:00:00 3,7 3,6 0,9
24.10.2020 04:00:00 3,9 3,9 1,3
24.10.2020 03:00:00 4,0 4,0 0,9
24.10.2020 02:00:00 4,1 4,0 0,2
24.10.2020 01:00:00 4,0 4,0 0,0
24.10.2020 00:00:00 4,0 4,0 0,0
23.10.2020 23:00:00 3,6 3,5 0,0
23.10.2020 22:00:00 3,1 3,0 0,0
23.10.2020 21:00:00 3,0 2,0 0,0
23.10.2020 20:00:00 4,1 2,6 0,0
23.10.2020 19:00:00 4,3 3,1 0,0
23.10.2020 18:00:00 4,5 2,9 0,0
23.10.2020 17:00:00 5,0 3,0 0,0
23.10.2020 16:00:00 5,3 3,0 0,0
23.10.2020 15:00:00 5,4 2,8 0,0
23.10.2020 14:00:00 5,4 2,4 0,0
23.10.2020 13:00:00 5,6 2,6 0,0
23.10.2020 12:00:00 5,2 2,7 0,0
23.10.2020 11:00:00 4,7 2,2 0,0
23.10.2020 10:00:00 4,4 2,3 0,0
23.10.2020 09:00:00 3,9 2,1 0,0
23.10.2020 08:00:00 3,2 3,1 0,0
23.10.2020 07:00:00 3,3 2,0 0,0
23.10.2020 06:00:00 4,2 2,7 0,0
23.10.2020 05:00:00 4,4 3,1 0,0
23.10.2020 04:00:00 4,7 4,7 0,0
23.10.2020 03:00:00 4,7 4,6 0,0
23.10.2020 02:00:00 5,5 - 0,0
23.10.2020 01:00:00 5,8 - 0,6
23.10.2020 00:00:00 6,3 - 0,4
22.10.2020 23:00:00 6,4 - 1,0
22.10.2020 22:00:00 7,1 - 3,2
22.10.2020 21:00:00 7,3 - 0,5
22.10.2020 20:00:00 7,3 - 0,3
22.10.2020 19:00:00 7,4 - 0,8
22.10.2020 18:00:00 7,5 - 2,7
22.10.2020 17:00:00 7,7 - 0,5
22.10.2020 16:00:00 8,2 - 0,0
22.10.2020 15:00:00 8,2 - 0,5
22.10.2020 14:00:00 8,1 - 0,1
22.10.2020 13:00:00 8,3 - 0,2
22.10.2020 12:00:00 7,9 - 0,0
22.10.2020 11:00:00 7,4 - 0,0
22.10.2020 10:00:00 6,9 - 0,0
22.10.2020 09:00:00 6,7 - 0,1
22.10.2020 08:00:00 6,2 - 0,1
22.10.2020 07:00:00 5,6 - 0,0
22.10.2020 06:00:00 6,6 - 0,0
22.10.2020 05:00:00 6,6 - 0,0
22.10.2020 04:00:00 7,1 - 0,1
22.10.2020 03:00:00 7,1 - 0,4
22.10.2020 02:00:00 7,3 - 0,2
22.10.2020 01:00:00 7,3 - 0,6
22.10.2020 00:00:00 7,3 - 0,5
21.10.2020 23:00:00 7,3 - 0,5
21.10.2020 22:00:00 7,3 - 0,6
21.10.2020 21:00:00 7,3 - 0,3
21.10.2020 20:00:00 8,0 - 0,5
21.10.2020 19:00:00 6,9 - 1,4
21.10.2020 18:00:00 6,8 - 4,5
21.10.2020 17:00:00 7,1 - 0,3
21.10.2020 16:00:00 7,6 - 0,1
21.10.2020 15:00:00 7,9 - 0,1
21.10.2020 14:00:00 7,8 - 0,0
21.10.2020 13:00:00 7,9 - 0,0
21.10.2020 12:00:00 7,1 - 0,0
21.10.2020 11:00:00 6,5 - 0,0
21.10.2020 10:00:00 5,8 - 0,0
21.10.2020 09:00:00 5,8 - 0,0
21.10.2020 08:00:00 5,0 5,0 0,0
21.10.2020 07:00:00 5,2 5,2 0,0
21.10.2020 06:00:00 5,4 5,4 0,0
21.10.2020 05:00:00 4,9 4,9 0,0
21.10.2020 04:00:00 5,3 5,3 0,2
21.10.2020 03:00:00 5,2 5,2 0,2
21.10.2020 02:00:00 5,1 5,1 0,0
21.10.2020 01:00:00 4,8 4,7 0,4
21.10.2020 00:00:00 5,0 5,0 0,7
20.10.2020 23:00:00 4,5 4,5 2,0
20.10.2020 22:00:00 4,4 4,4 2,0
20.10.2020 21:00:00 4,2 4,2 0,7
20.10.2020 20:00:00 4,0 4,0 0,9
20.10.2020 19:00:00 3,7 3,7 1,0
20.10.2020 18:00:00 3,9 3,9 0,9
20.10.2020 17:00:00 4,0 4,0 0,8
20.10.2020 16:00:00 4,0 4,0 0,7
20.10.2020 15:00:00 3,7 3,6 1,5
20.10.2020 14:00:00 3,7 3,7 1,3
20.10.2020 13:00:00 3,4 3,4 0,5
20.10.2020 12:00:00 2,6 2,5 1,5
20.10.2020 11:00:00 2,6 2,6 1,8
20.10.2020 10:00:00 4,0 4,0 1,7
20.10.2020 09:00:00 2,9 2,2 1,7
20.10.2020 08:00:00 2,2 1,2 2,6
20.10.2020 07:00:00 1,8 0,8 2,2
20.10.2020 06:00:00 1,6 0,6 1,4
20.10.2020 05:00:00 1,7 0,7 0,5
20.10.2020 04:00:00 1,5 0,5 0,5
20.10.2020 03:00:00 1,6 0,6 0,6
20.10.2020 02:00:00 2,1 0,5 0,7
20.10.2020 01:00:00 3,1 0,0 0,1
20.10.2020 00:00:00 4,8 -2,3 0,0
19.10.2020 23:00:00 2,7 -0,4 0,0
19.10.2020 22:00:00 2,2 -0,4 0,0
19.10.2020 21:00:00 2,3 -0,4 0,0
19.10.2020 20:00:00 1,5 -0,7 0,0
19.10.2020 19:00:00 1,7 -0,9 0,0
19.10.2020 18:00:00 1,6 -1,0 0,0
19.10.2020 17:00:00 2,5 -1,3 0,0
19.10.2020 16:00:00 5,9 -1,9 0,0
19.10.2020 15:00:00 7,4 -0,8 0,0
19.10.2020 14:00:00 7,9 -2,7 0,0
19.10.2020 13:00:00 7,8 -1,9 0,0
19.10.2020 12:00:00 6,2 -1,4 0,0
19.10.2020 11:00:00 5,2 -1,2 0,0
19.10.2020 10:00:00 2,0 -0,7 0,0
19.10.2020 09:00:00 -0,4 -1,5 0,0
19.10.2020 08:00:00 -3,0 -4,0 0,0
19.10.2020 07:00:00 -3,6 -5,0 0,0
19.10.2020 06:00:00 -2,4 -3,8 0,0
19.10.2020 05:00:00 -2,1 -3,2 0,0
19.10.2020 04:00:00 -2,7 -4,0 0,0
19.10.2020 03:00:00 -2,7 -4,2 0,0
19.10.2020 02:00:00 -3,2 -4,6 0,0

tt = temperature
td = dewpoint
rr = precipitation

Next stations